Location: Unspecified
(0.0000°N, 0.0000°E)
Time: 18:35:11
(UTC+00:00)

SR - All Passes

Search period start: 21 February 2018 00:00
Search period end: 03 March 2018 00:00
Orbit: 582 x 875 km, 66.7° (Epoch: 20 February)

Date Brightness Start Highest point End Pass type
(mag) Time Alt. Az. Time Alt. Az. Time Alt. Az.
21 Feb - 01:17:00 10° S 01:21:28 49° ESE 01:25:38 10° NE night (unlit)
21 Feb - 13:41:16 10° NNW 13:46:43 63° WSW 13:52:30 10° S daylight
22 Feb - 00:28:56 10° SSE 00:31:57 17° ESE 00:34:51 10° ENE night (unlit)
22 Feb - 02:10:30 10° WSW 02:13:43 19° WNW 02:16:49 10° NNW night (unlit)
22 Feb - 12:51:57 10° N 12:57:17 53° ENE 13:02:56 10° SSE daylight
22 Feb - 14:37:33 10° W 14:39:18 11° WSW 14:41:03 10° SW daylight
23 Feb - 01:19:52 10° SSW 01:24:21 57° WNW 01:28:34 10° N night (unlit)
23 Feb - 12:03:43 10° NNE 12:07:54 22° ENE 12:12:14 10° ESE daylight
23 Feb - 13:45:01 10° NW 13:49:43 28° WSW 13:54:40 10° SSW daylight
24 Feb - 00:30:33 10° S 00:34:56 45° ESE 00:39:03 10° NE night (unlit)
24 Feb - 12:54:43 10° NNW 13:00:13 68° WSW 13:06:02 10° SSE daylight
24 Feb - 23:42:39 10° SSE 23:45:25 16° ESE 23:48:04 10° ENE night (unlit)
25 Feb - 01:23:49 10° WSW 01:27:11 21° WNW 01:30:25 10° NNW night (unlit)
25 Feb - 12:05:28 10° N 12:10:47 50° ENE 12:16:24 10° SE daylight
25 Feb - 13:50:31 10° W 13:52:47 12° WSW 13:55:06 10° SW daylight
26 Feb - 00:33:20 10° SSW 00:37:49 63° WNW 00:42:03 10° N night (unlit)
26 Feb - 11:17:21 10° NNE 11:21:23 21° ENE 11:25:35 10° ESE daylight
26 Feb - 12:58:22 10° NW 13:03:13 30° WSW 13:08:17 10° S daylight
26 Feb - 23:44:06 10° S 23:48:23 41° ESE 23:52:26 10° NE night (unlit)
27 Feb - 12:08:10 10° NNW 12:13:43 73° WSW 12:19:34 10° SSE daylight
27 Feb - 22:56:24 10° SE 22:58:51 14° ESE 23:01:15 10° ENE night (unlit)
28 Feb - 00:37:09 10° WSW 00:40:39 22° WNW 00:44:01 10° NNW night (unlit)
28 Feb - 11:19:00 10° N 11:24:17 46° ENE 11:29:52 10° SE daylight
28 Feb - 13:03:35 10° W 13:06:16 13° WSW 13:09:00 10° SW daylight
28 Feb - 23:46:48 10° SSW 23:51:17 69° WNW 23:55:31 10° NNE night (unlit)
01 Mar - 10:31:00 10° NNE 10:34:53 19° ENE 10:38:54 10° ESE daylight
01 Mar - 12:11:44 10° NW 12:16:42 32° WSW 12:21:53 10° S daylight
01 Mar - 22:57:39 10° S 23:01:51 37° ESE 23:05:49 10° NE night (unlit)
02 Mar - 11:21:38 10° NNW 11:27:13 78° WSW 11:33:05 10° SSE daylight
02 Mar - 22:10:12 10° SE 22:12:19 13° ESE 22:14:23 10° E night (unlit)
02 Mar - 23:50:31 10° SW 23:54:07 24° WNW 23:57:36 10° NNW night (unlit)
